TimeHAST,TemperatureF,Dew PointF,Humidity,Sea Level PressureIn,VisibilityMPH,Wind Direction,Wind SpeedMPH,Gust SpeedMPH,PrecipitationIn,Events,Conditions,WindDirDegrees,DateUTC
12:16 AM,37.4,30.2,75,28.74,5.0,South,26.5,36.8,N/A,,Overcast,190,2014-01-11 10:16:00
12:36 AM,37.4,32.0,81,28.74,4.0,SSW,28.8,42.6,N/A,,Overcast,210,2014-01-11 10:36:00
12:56 AM,37.4,32.0,81,28.73,5.0,SSW,33.4,42.6,N/A,,Mostly Cloudy,210,2014-01-11 10:56:00
1:16 AM,37.4,32.0,81,28.73,5.0,SSW,25.3,31.1,N/A,,Overcast,210,2014-01-11 11:16:00
1:36 AM,37.4,30.2,75,28.73,10.0,SSW,20.7,29.9,N/A,,Overcast,210,2014-01-11 11:36:00
1:56 AM,37.4,30.2,75,28.73,10.0,SW,26.5,40.3,N/A,,Overcast,220,2014-01-11 11:56:00
2:16 AM,37.4,30.2,75,28.73,10.0,SW,23.0,35.7,N/A,,Overcast,220,2014-01-11 12:16:00
2:36 AM,37.4,30.2,75,28.72,10.0,SW,20.7,41.4,N/A,,Overcast,220,2014-01-11 12:36:00
2:56 AM,37.4,30.2,75,28.73,10.0,SSW,24.2,34.5,N/A,,Mostly Cloudy,210,2014-01-11 12:56:00
3:16 AM,39.2,30.2,70,28.73,9.0,SW,20.7,39.1,N/A,,Overcast,230,2014-01-11 13:16:00
3:36 AM,37.4,30.2,75,28.74,7.0,SSW,29.9,41.4,N/A,,Overcast,210,2014-01-11 13:36:00
3:56 AM,37.4,30.2,75,28.74,5.0,SW,19.6,36.8,N/A,,Overcast,230,2014-01-11 13:56:00
4:16 AM,37.4,30.2,75,28.73,10.0,SSW,35.7,43.7,N/A,,Mostly Cloudy,210,2014-01-11 14:16:00
4:36 AM,37.4,32.0,81,28.73,7.0,SW,28.8,36.8,N/A,,Overcast,220,2014-01-11 14:36:00
4:56 AM,37.4,30.2,75,28.74,9.0,SW,31.1,36.8,N/A,,Overcast,220,2014-01-11 14:56:00
5:16 AM,37.4,30.2,75,28.73,10.0,WSW,28.8,38.0,N/A,,Overcast,240,2014-01-11 15:16:00
5:36 AM,37.4,30.2,75,28.74,8.0,SW,27.6,39.1,N/A,,Overcast,230,2014-01-11 15:36:00
5:56 AM,37.4,30.2,75,28.73,10.0,SW,23.0,39.1,N/A,,Overcast,230,2014-01-11 15:56:00
6:16 AM,37.4,30.2,75,28.73,10.0,SW,24.2,39.1,N/A,,Overcast,230,2014-01-11 16:16:00
6:36 AM,39.2,28.4,65,28.73,10.0,SW,31.1,42.6,N/A,,Overcast,220,2014-01-11 16:36:00
6:56 AM,37.4,30.2,75,28.73,10.0,SW,15.0,26.5,N/A,,Overcast,220,2014-01-11 16:56:00
7:16 AM,37.4,28.4,70,28.73,10.0,SW,16.1,33.4,N/A,,Mostly Cloudy,230,2014-01-11 17:16:00
7:36 AM,37.4,30.2,75,28.73,10.0,SW,25.3,32.2,N/A,,Overcast,220,2014-01-11 17:36:00
7:56 AM,37.4,30.2,75,28.72,10.0,SW,18.4,32.2,N/A,,Overcast,220,2014-01-11 17:56:00
8:16 AM,37.4,30.2,75,28.73,10.0,SW,18.4,27.6,N/A,,Overcast,230,2014-01-11 18:16:00
8:36 AM,37.4,30.2,75,28.73,10.0,WSW,18.4,27.6,N/A,,Overcast,240,2014-01-11 18:36:00
8:56 AM,37.4,30.2,75,28.73,10.0,SW,11.5,18.4,N/A,,Overcast,220,2014-01-11 18:56:00
9:16 AM,37.4,30.2,75,28.74,9.0,SW,12.7,-,N/A,,Overcast,230,2014-01-11 19:16:00
9:36 AM,37.4,30.2,75,28.75,10.0,SW,12.7,-,N/A,,Overcast,220,2014-01-11 19:36:00
9:56 AM,37.4,30.2,75,28.75,10.0,SW,15.0,20.7,N/A,,Overcast,220,2014-01-11 19:56:00
10:16 AM,37.4,30.2,75,28.76,10.0,SW,15.0,24.2,N/A,,Overcast,230,2014-01-11 20:16:00
10:36 AM,37.4,30.2,75,28.77,10.0,SW,13.8,20.7,N/A,,Overcast,230,2014-01-11 20:36:00
10:56 AM,37.4,30.2,75,28.77,10.0,SW,17.3,23.0,N/A,,Overcast,230,2014-01-11 20:56:00
11:16 AM,37.4,30.2,75,28.77,10.0,SW,13.8,20.7,N/A,,Overcast,220,2014-01-11 21:16:00
11:36 AM,37.4,30.2,75,28.78,10.0,SW,10.4,-,N/A,,Overcast,230,2014-01-11 21:36:00
11:56 AM,39.2,30.2,70,28.78,10.0,SW,11.5,20.7,N/A,,Overcast,220,2014-01-11 21:56:00
12:16 PM,37.4,30.2,75,28.79,10.0,SW,12.7,18.4,N/A,,Overcast,230,2014-01-11 22:16:00
12:36 PM,-9999,-9999,N/A,28.79,-9999.0,WSW,16.1,-,N/A,,Unknown,240,2014-01-11 22:36:00
12:56 PM,37.4,30.2,75,28.79,9.0,WSW,13.8,21.9,N/A,,Overcast,250,2014-01-11 22:56:00
1:16 PM,37.4,30.2,75,28.79,7.0,WSW,13.8,21.9,N/A,,Overcast,240,2014-01-11 23:16:00
1:36 PM,37.4,30.2,75,28.79,8.0,SW,15.0,20.7,N/A,,Overcast,230,2014-01-11 23:36:00
1:56 PM,37.4,30.2,75,28.78,10.0,SW,13.8,17.3,N/A,,Mostly Cloudy,230,2014-01-11 23:56:00
2:16 PM,37.4,30.2,75,28.78,10.0,SW,10.4,18.4,N/A,,Overcast,230,2014-01-12 00:16:00
2:36 PM,37.4,30.2,75,28.78,10.0,SW,8.1,-,N/A,,Overcast,220,2014-01-12 00:36:00
2:56 PM,37.4,28.4,70,28.78,10.0,WSW,17.3,-,N/A,,Overcast,240,2014-01-12 00:56:00
3:16 PM,37.4,28.4,70,28.78,10.0,WSW,10.4,-,N/A,,Overcast,240,2014-01-12 01:16:00
3:36 PM,37.4,26.6,65,28.78,10.0,SW,12.7,17.3,N/A,,Overcast,230,2014-01-12 01:36:00
3:56 PM,37.4,26.6,65,28.78,10.0,SW,17.3,20.7,N/A,,Overcast,230,2014-01-12 01:56:00
4:16 PM,37.4,26.6,65,28.78,10.0,SW,16.1,21.9,N/A,,Overcast,230,2014-01-12 02:16:00
4:36 PM,37.4,26.6,65,28.79,10.0,SW,15.0,21.9,N/A,,Overcast,230,2014-01-12 02:36:00
4:56 PM,37.4,26.6,65,28.79,10.0,WSW,13.8,-,N/A,,Overcast,240,2014-01-12 02:56:00
5:16 PM,37.4,26.6,65,28.79,10.0,WSW,16.1,20.7,N/A,,Overcast,240,2014-01-12 03:16:00
5:36 PM,37.4,26.6,65,28.79,10.0,SW,10.4,20.7,N/A,,Overcast,230,2014-01-12 03:36:00
5:56 PM,37.4,26.6,65,28.79,10.0,SSW,17.3,21.9,N/A,,Overcast,210,2014-01-12 03:56:00
6:16 PM,37.4,28.4,70,28.80,10.0,SW,10.4,21.9,N/A,,Overcast,230,2014-01-12 04:16:00
6:36 PM,37.4,28.4,70,28.80,10.0,SW,18.4,26.5,N/A,,Overcast,220,2014-01-12 04:36:00
6:56 PM,37.4,28.4,70,28.80,10.0,SW,9.2,16.1,N/A,,Overcast,220,2014-01-12 04:56:00
7:16 PM,37.4,30.2,75,28.80,10.0,SW,13.8,21.9,N/A,,Overcast,230,2014-01-12 05:16:00
7:36 PM,35.6,30.2,81,28.80,10.0,WSW,13.8,19.6,N/A,,Overcast,240,2014-01-12 05:36:00
7:56 PM,35.6,30.2,81,28.81,3.0,West,8.1,-,N/A,,Overcast,260,2014-01-12 05:56:00
8:16 PM,35.6,30.2,81,28.81,8.0,West,4.6,-,N/A,,Overcast,280,2014-01-12 06:16:00
8:36 PM,35.6,30.2,81,28.82,10.0,West,4.6,-,N/A,,Overcast,270,2014-01-12 06:36:00
8:56 PM,35.6,30.2,81,28.82,10.0,SW,8.1,-,N/A,,Overcast,220,2014-01-12 06:56:00
9:16 PM,35.6,30.2,81,28.83,10.0,WSW,5.8,-,N/A,,Overcast,240,2014-01-12 07:16:00
9:36 PM,35.6,30.2,81,28.84,10.0,SSW,8.1,-,N/A,,Overcast,210,2014-01-12 07:36:00
9:56 PM,35.6,30.2,81,28.84,10.0,SW,11.5,16.1,N/A,,Overcast,230,2014-01-12 07:56:00
10:16 PM,35.6,30.2,81,28.84,10.0,WSW,11.5,-,N/A,,Mostly Cloudy,240,2014-01-12 08:16:00
10:36 PM,35.6,30.2,81,28.84,10.0,SW,6.9,-,N/A,,Mostly Cloudy,230,2014-01-12 08:36:00
10:56 PM,37.4,30.2,75,28.85,10.0,SSW,6.9,-,N/A,,Mostly Cloudy,210,2014-01-12 08:56:00
11:16 PM,35.6,30.2,81,28.85,10.0,SSW,15.0,-,N/A,,Mostly Cloudy,210,2014-01-12 09:16:00
11:36 PM,35.6,30.2,81,28.85,10.0,SW,13.8,-,N/A,,Overcast,220,2014-01-12 09:36:00
11:56 PM,35.6,30.2,81,28.85,10.0,SW,10.4,-,N/A,,Mostly Cloudy,230,2014-01-12 09:56:00